{"data":{"norad_id":67174,"epoch":"2026-09-20T19:14:50.296992Z","epoch_age_seconds":52116,"freshness":"FRESH","line1":"1 67174U 25303M   26263.80197103  .00010728  00000+0  39873-3 0  9996","line2":"2 67174  43.0022 288.9494 0002574 264.1342  95.9216 15.27583939 42574","mean_motion":15.27583939,"eccentricity":0.0002574,"inclination_deg":43.0022,"raan_deg":288.9494,"arg_perigee_deg":264.1342,"mean_anomaly_deg":95.9216,"bstar":0.00039873,"rev_number":4257,"period_min":94.266505639138,"perigee_km":481.2712350168,"apogee_km":484.8033675471,"semimajor_km":6861.1743012819,"source":"CELESTRAK","updated_at":"2026-09-21T09:00:36.112384Z"}}